User: anonymous   Login
Location: Krasnoyarskiy Pitomnik
(51.1333°N, 71.6167°E)
Time: 18:17:01
(UTC+00:00)
Language:

SL-16 R/B - Orbit

View from above orbital plane
View from above orbital plane
View from above satellite
View from above satellite

Ground track
Ground track

The orbit data is extracted from the following two-line orbital elements,

1 31793U 07029B   22024.62583060 -.00000151  00000-0 -53931-4 0  9995
2 31793  70.9753  95.0109 0002004 262.4757 206.9170 14.14456169752526
Epoch (UTC): 24 January 2022 15:01:11
Eccentricity: 0.0002004
inclination: 70.9753°
perigee height: 843 km
apogee height: 845 km
right ascension of ascending node: 95.0109°
argument of perigee: 262.4757°
revolutions per day: 14.14456169
mean anomaly at epoch: 206.9170°
orbit number at epoch: 75252

The dashed part of the orbit path shows where the satellite is in the earth's shadow,  

DLR